COSMOS 2088

导读

COSMOS 2088(宇宙2088)是苏联/俄罗斯“宇宙号”系列卫星中的一员,于1990年7月30日由独联体(CIS)发射入轨。作为世界上规模最大的卫星家族,宇宙号系列多为军用混合用途卫星,涵盖侦察、技术试验等任务,2088延续了系列保密任务属性,延续了苏联航天的发射传统,为空间技术发展积累了关键数据。

基本信息
目录编号:
20720
目录名称:
COSMOS 2088
国际标识:
1990-066A
轨道中心:
EARTH
卫星名称:
COSMOS 2088
卫星全名:
--
卫星状态:
在轨 (已飞行13175 天)
发射日期:
1990-07-30 UTC
国别 :
俄罗斯(独联体) (CIS)
星等 :
--
轨道信息
数据来源 国际轨道数据 AOE轨道数据
星历时间 2026-08-25T17:04:56+0800
9小时前
查看轨道信息
2026-08-24T08:00:00+0800
1天前
查看轨道信息
半长轴 7881.419km 7881.416km
偏心率 0.0025072 0.0024977
轨道倾角 73.600° 73.602°
近地点辐角 163.275° 165.480°
升交点赤经 298.062° 299.911°
平近点角 279.479° 242.073°
近地点 1483.521km 1483.593km
远地点 1523.043km 1522.965km
周期 116.056分钟 116.056分钟
每日圈数 12.407841 12.407848
详细信息
使用方式:
暂无
2D轨道图
3D轨道图
轨道高度分析图
轨道倾角分析图
轨道综合分析图
查看轨道综合分析图